| time (UTC) | temp F | wind direction | speed MPH | gust MPH | rain 1hr in | rain 24hr in | rain mn in | humidity % | barometer mb |
| 20260505022833 | 76 | 231 | 1.0 | 3.0 | 0.00 | 0.00 | 0.00 | 39 | 1011.2 |
| 20260505021826 | 77 | 223 | 2.0 | 3.0 | 0.00 | 0.00 | 0.00 | 38 | 1011.1 |
| 20260505020840 | 77 | 204 | 0.0 | 6.0 | 0.00 | 0.00 | 0.00 | 36 | 1011.2 |
| 20260505015813 | 77 | 182 | 1.0 | 5.0 | 0.00 | 0.00 | 0.00 | 36 | 1010.9 |
| 20260505014831 | 77 | 177 | 2.0 | 4.0 | 0.00 | 0.00 | 0.00 | 35 | 1010.9 |
| 20260505013825 | 77 | 214 | 1.0 | 2.0 | 0.00 | 0.00 | 0.00 | 38 | 1010.7 |
| 20260505012819 | 77 | 276 | 0.0 | 2.0 | 0.00 | 0.00 | 0.00 | 39 | 1010.6 |
| 20260505011812 | 77 | 218 | 0.0 | 6.0 | 0.00 | 0.00 | 0.00 | 38 | 1010.8 |
| 20260505010813 | 77 | 225 | 2.0 | 7.0 | 0.00 | 0.00 | 0.00 | 38 | 1010.8 |
| 20260505005848 | 77 | 243 | 2.0 | 8.0 | 0.00 | 0.00 | 0.00 | 38 | 1010.8 |
| 20260505004821 | 78 | 222 | 1.0 | 3.0 | 0.00 | 0.00 | 0.00 | 38 | 1010.9 |
| 20260505003816 | 78 | 247 | 0.0 | 2.0 | 0.00 | 0.00 | 0.00 | 38 | 1010.8 |
| 20260505002831 | 78 | 225 | 1.0 | 3.0 | 0.00 | 0.00 | 0.00 | 38 | 1010.9 |
| 20260505001824 | 77 | 218 | 1.0 | 6.0 | 0.00 | 0.00 | 0.00 | 38 | 1011.0 |
| 20260505000821 | 77 | 208 | 1.0 | 3.0 | 0.00 | 0.00 | 0.00 | 39 | 1011.1 |
| 20260504235813 | 77 | 224 | 1.0 | 5.0 | 0.00 | 0.00 | 0.00 | 39 | 1011.3 |
| 20260504234827 | 78 | 248 | 3.0 | 7.0 | 0.00 | 0.00 | 0.00 | 39 | 1011.4 |
| 20260504233820 | 78 | 208 | 0.0 | 3.0 | 0.00 | 0.00 | 0.00 | 39 | 1011.4 |
| 20260504232819 | 77 | 314 | 2.0 | 5.0 | 0.00 | 0.00 | 0.00 | 40 | 1011.3 |
| 20260504231812 | 77 | 354 | 0.0 | 7.0 | 0.00 | 0.00 | 0.00 | 40 | 1011.2 |
| 20260504230827 | 77 | 197 | 1.0 | 4.0 | 0.00 | 0.00 | 0.00 | 40 | 1011.2 |
| 20260504225821 | 78 | 231 | 2.0 | 5.0 | 0.00 | 0.00 | 0.00 | 39 | 1011.3 |
| 20260504224812 | 78 | 328 | 1.0 | 5.0 | 0.00 | 0.00 | 0.00 | 40 | 1011.4 |
| 20260504223831 | 78 | 12 | 2.0 | 6.0 | 0.00 | 0.00 | 0.00 | 39 | 1011.4 |
| 20260504222826 | 78 | 287 | 4.0 | 12.0 | 0.00 | 0.00 | 0.00 | 39 | 1011.7 |
| 20260504221820 | 78 | 280 | 6.0 | 12.0 | 0.00 | 0.00 | 0.00 | 39 | 1011.7 |
| 20260504220831 | 78 | 243 | 3.0 | 8.0 | 0.00 | 0.00 | 0.00 | 40 | 1011.8 |
| 20260504215826 | 78 | 318 | 2.0 | 8.0 | 0.00 | 0.00 | 0.00 | 39 | 1011.8 |
| 20260504214822 | 77 | 4 | 0.0 | 8.0 | 0.00 | 0.00 | 0.00 | 40 | 1011.7 |
| 20260504213816 | 77 | 236 | 1.0 | 8.0 | 0.00 | 0.00 | 0.00 | 40 | 1012.1 |
| 20260504212830 | 78 | 239 | 1.0 | 8.0 | 0.00 | 0.00 | 0.00 | 40 | 1012.6 |
| 20260504211823 | 77 | 324 | 4.0 | 14.0 | 0.00 | 0.00 | 0.00 | 40 | 1012.7 |
| 20260504210815 | 78 | 236 | 4.0 | 12.0 | 0.00 | 0.00 | 0.00 | 39 | 1012.7 |
| 20260504205812 | 78 | 290 | 7.0 | 14.0 | 0.00 | 0.00 | 0.00 | 39 | 1012.7 |
| 20260504204825 | 79 | 234 | 5.0 | 11.0 | 0.00 | 0.00 | 0.00 | 36 | 1012.7 |
| 20260504203818 | 80 | 236 | 2.0 | 9.0 | 0.00 | 0.00 | 0.00 | 37 | 1012.7 |
| 20260504202828 | 79 | 239 | 3.0 | 9.0 | 0.00 | 0.00 | 0.00 | 37 | 1012.5 |
| 20260504201821 | 78 | 262 | 4.0 | 8.0 | 0.00 | 0.00 | 0.00 | 40 | 1012.6 |
| 20260504200821 | 78 | 218 | 3.0 | 10.0 | 0.00 | 0.00 | 0.00 | 40 | 1012.6 |
| 20260504195814 | 77 | 231 | 5.0 | 9.0 | 0.00 | 0.00 | 0.00 | 40 | 1012.7 |
| 20260504194827 | 77 | 89 | 0.0 | 7.0 | 0.00 | 0.00 | 0.00 | 40 | 1012.6 |
| 20260504193820 | 78 | 224 | 3.0 | 8.0 | 0.00 | 0.00 | 0.00 | 40 | 1012.8 |
| 20260504192813 | 78 | 239 | 2.0 | 9.0 | 0.00 | 0.00 | 0.00 | 38 | 1013.1 |
| 20260504191830 | 78 | 218 | 2.0 | 10.0 | 0.00 | 0.00 | 0.00 | 40 | 1013.1 |
| 20260504190822 | 78 | 237 | 1.0 | 6.0 | 0.00 | 0.00 | 0.00 | 40 | 1012.9 |
| 20260504185819 | 77 | 217 | 1.0 | 4.0 | 0.00 | 0.00 | 0.00 | 41 | 1012.7 |
| 20260504184829 | 77 | 235 | 2.0 | 7.0 | 0.00 | 0.00 | 0.00 | 43 | 1012.7 |
| 20260504183823 | 76 | 229 | 2.0 | 8.0 | 0.00 | 0.00 | 0.00 | 42 | 1012.8 |
| 20260504182823 | 76 | 237 | 6.0 | 12.0 | 0.00 | 0.00 | 0.00 | 41 | 1013.2 |
| 20260504181818 | 76 | 235 | 5.0 | 14.0 | 0.00 | 0.00 | 0.00 | 36 | 1013.5 |
| 20260504180831 | 76 | 222 | 4.0 | 11.0 | 0.00 | 0.00 | 0.00 | 35 | 1013.4 |
| 20260504175844 | 76 | 195 | 3.0 | 9.0 | 0.00 | 0.00 | 0.00 | 35 | 1013.0 |
| 20260504174818 | 77 | 222 | 3.0 | 7.0 | 0.00 | 0.00 | 0.00 | 34 | 1012.6 |
| 20260504173828 | 76 | 201 | 3.0 | 9.0 | 0.00 | 0.00 | 0.00 | 37 | 1012.9 |
| 20260504172822 | 76 | 201 | 3.0 | 10.0 | 0.00 | 0.00 | 0.00 | 36 | 1012.7 |
| 20260504171813 | 76 | 162 | 4.0 | 10.0 | 0.00 | 0.00 | 0.00 | 36 | 1013.0 |
| 20260504170827 | 76 | 202 | 3.0 | 8.0 | 0.00 | 0.00 | 0.00 | 35 | 1013.1 |
| 20260504150813 | 74 | 219 | 3.0 | 11.0 | 0.00 | 0.00 | 0.00 | 44 | 1012.7 |
| 20260504140823 | 73 | 152 | 2.0 | 7.0 | 0.00 | 0.00 | 0.00 | 46 | 1012.0 |
| 20260504130816 | 72 | 212 | 2.0 | 4.0 | 0.00 | 0.00 | 0.00 | 46 | 1011.9 |
| 20260504081819 | 77 | 220 | 3.0 | 9.0 | 0.00 | 0.00 | 0.00 | 38 | 1010.6 |
| 20260504080815 | 77 | 190 | 2.0 | 6.0 | 0.00 | 0.00 | 0.00 | 39 | 1010.7 |
| 20260504045823 | 81 | 159 | 4.0 | 11.0 | 0.00 | 0.00 | 0.00 | 27 | 1010.6 |
| 20260504044817 | 81 | 158 | 3.0 | 10.0 | 0.00 | 0.00 | 0.00 | 27 | 1010.5 |
| 20260504043831 | 82 | 85 | 4.0 | 13.0 | 0.00 | 0.00 | 0.00 | 25 | 1010.4 |
| 20260504042825 | 82 | 213 | 5.0 | 11.0 | 0.00 | 0.00 | 0.00 | 24 | 1010.4 |
| 20260504041839 | 83 | 183 | 4.0 | 10.0 | 0.00 | 0.00 | 0.00 | 24 | 1010.0 |
| 20260504040814 | 83 | 208 | 4.0 | 14.0 | 0.00 | 0.00 | 0.00 | 24 | 1009.8 |
| 20260504035829 | 84 | 175 | 6.0 | 15.0 | 0.00 | 0.00 | 0.00 | 24 | 1009.7 |
| 20260504034821 | 84 | 208 | 7.0 | 15.0 | 0.00 | 0.00 | 0.00 | 23 | 1009.4 |
| 20260504033815 | 84 | 200 | 5.0 | 14.0 | 0.00 | 0.00 | 0.00 | 22 | 1009.2 |
| 20260504032827 | 84 | 183 | 4.0 | 12.0 | 0.00 | 0.00 | 0.00 | 22 | 1008.8 |
| 20260504031824 | 85 | 203 | 4.0 | 14.0 | 0.00 | 0.00 | 0.00 | 21 | 1008.6 |
| 20260504030819 | 85 | 185 | 5.0 | 15.0 | 0.00 | 0.00 | 0.00 | 20 | 1008.4 |
| 20260504025814 | 86 | 208 | 6.0 | 11.0 | 0.00 | 0.00 | 0.00 | 20 | 1008.3 |
| 20260504024826 | 86 | 215 | 7.0 | 18.0 | 0.00 | 0.00 | 0.00 | 19 | 1007.8 |
| 20260504023821 | 87 | 174 | 10.0 | 23.0 | 0.00 | 0.00 | 0.00 | 19 | 1007.7 |